Flag for U.S.A. Weather past 2 weeks in Jacksonville, North Carolina, U.S.A.

Now
84 °F

Passing clouds.


Feels Like: 86 °F
Forecast: 67 / 84 °F
Wind: 12 mph from North

Location: Jacksonville - New River

Current Time: Aug 28, 2015 at 3:38:26 PM

Latest Report: Aug 28, 2015 at 2:56 PM


Visibility: 10 mi

Pressure: 30.14 "Hg

Humidity: 53%

Dew point: 65 °F

Location of JacksonvilleLocation

Historic Weather in Jacksonville — Graph

°F

Jacksonville temperature yesterday

Maximum temperature yesterday: 79 °F (at 3:56 PM)
Minimum temperature yesterday: 70 °F (at 7:56 AM)
Average temperature yesterday: 74 °F

Past Weeks' High & Low Weather Summary

 TemperatureHumidityPressure
High90 °F (Aug 21, 12:56 PM)97% (Aug 19, 7:56 AM)30.19 "Hg (Aug 19, 7:56 AM)
Low66 °F (Aug 16, 6:56 AM)36% (Aug 22, 4:56 PM)29.86 "Hg (Aug 26, 5:56 AM)
Average77 °F77%30.03 "Hg
* Reported Aug 13 1:56 PM — Aug 28 1:56 PM, Jacksonville, Weather by CustomWeather, © 2015

Note: Actual official high and low records may vary slightly from our data, if they occured in-between our weather recording intervals... More about our weather records

Advertising

Jacksonville weather history for previous 24 hours

 ConditionsComfort  
Time TempWeatherWind HumidityBarometerVisibility
1:56 PM
Fri, Aug 28
84 °FPassing clouds.12 mph53%30.15 "Hg10 mi
12:56 PM83 °FScattered clouds.14 mph53%30.15 "Hg10 mi
11:56 AM82 °FBroken clouds.10 mph53%30.16 "Hg10 mi
10:56 AM81 °FSunny.12 mph54%30.16 "Hg10 mi
9:56 AM78 °FSunny.12 mph62%30.14 "Hg10 mi
8:56 AM75 °FSunny.10 mph69%30.12 "Hg10 mi
7:56 AM70 °FSunny.5 mph81%30.11 "Hg10 mi
6:56 AM69 °FPassing clouds.7 mph84%30.09 "Hg10 mi
5:56 AM69 °FPassing clouds.5 mph84%30.07 "Hg10 mi
4:56 AM69 °FPassing clouds.5 mph81%30.06 "Hg10 mi
3:56 AM68 °FClear.6 mph84%30.06 "Hg10 mi
2:56 AM69 °FClear.5 mph81%30.07 "Hg10 mi
1:56 AM69 °FPassing clouds.6 mph81%30.09 "Hg10 mi
12:56 AM70 °FClear.5 mph79%30.09 "Hg10 mi
11:56 PM
Thu, Aug 27
71 °FClear.9 mph76%30.08 "Hg10 mi
10:56 PM72 °FClear.9 mph76%30.08 "Hg10 mi
9:56 PM73 °FMostly cloudy.6 mph76%30.08 "Hg10 mi
8:56 PM74 °FPartly cloudy.7 mph79%30.07 "Hg10 mi
7:56 PM76 °FOvercast.12 mph74%30.04 "Hg10 mi
6:56 PM77 °FOvercast.9 mph77%30.03 "Hg10 mi
5:56 PM78 °FOvercast.9 mph74%30.02 "Hg10 mi
4:56 PM79 °FMostly cloudy.12 mph72%30.01 "Hg10 mi
3:56 PM79 °FMostly cloudy.12 mph74%30.01 "Hg10 mi
Weather by CustomWeather, © 2015

See weather overviewHow to use our weather pages